Time,TemperatureF,DewpointF,PressureIn,WindDirection,WindDirectionDegrees,WindSpeedMPH,WindSpeedGustMPH,Humidity,HourlyPrecipIn,Conditions,Clouds,dailyrainin,SoftwareType,DateUTC
2013-10-08 00:04:00,55.8,53.0,30.07,ENE,70,0.0,0.0,90,0.00,,,0.00,weatherlink.com 1.10,2013-10-08 05:04:00,
2013-10-08 00:19:00,55.7,53.0,30.06,ENE,71,0.0,0.0,90,0.00,,,0.00,weatherlink.com 1.10,2013-10-08 05:19:00,
2013-10-08 00:34:00,55.4,53.0,30.06,ENE,71,0.0,0.0,91,0.00,,,0.00,weatherlink.com 1.10,2013-10-08 05:34:00,
2013-10-08 00:49:00,55.1,53.0,30.06,ENE,70,0.0,0.0,91,0.00,,,0.00,weatherlink.com 1.10,2013-10-08 05:49:00,
2013-10-08 01:04:00,54.8,53.0,30.06,ENE,70,0.0,0.0,92,0.00,,,0.00,weatherlink.com 1.10,2013-10-08 06:04:00,
2013-10-08 01:19:00,54.5,52.0,30.06,ENE,70,0.0,0.0,92,0.00,,,0.00,weatherlink.com 1.10,2013-10-08 06:19:00,
2013-10-08 01:34:00,54.2,52.0,30.06,ENE,71,0.0,0.0,93,0.00,,,0.00,weatherlink.com 1.10,2013-10-08 06:34:00,
2013-10-08 01:49:00,54.0,52.0,30.06,ENE,70,0.0,0.0,93,0.00,,,0.00,weatherlink.com 1.10,2013-10-08 06:49:00,
2013-10-08 02:04:00,53.8,52.0,30.06,ENE,70,0.0,0.0,93,0.00,,,0.00,weatherlink.com 1.10,2013-10-08 07:04:00,
2013-10-08 02:19:00,53.7,52.0,30.06,ENE,71,0.0,0.0,93,0.00,,,0.00,weatherlink.com 1.10,2013-10-08 07:19:00,
2013-10-08 02:34:00,53.6,52.0,30.06,ENE,70,0.0,0.0,93,0.00,,,0.00,weatherlink.com 1.10,2013-10-08 07:34:00,
2013-10-08 02:49:00,53.6,52.0,30.05,ENE,70,0.0,1.0,93,0.00,,,0.00,weatherlink.com 1.10,2013-10-08 07:49:00,
2013-10-08 03:04:00,53.5,52.0,30.05,ENE,70,0.0,1.0,93,0.00,,,0.00,weatherlink.com 1.10,2013-10-08 08:04:00,
2013-10-08 03:19:00,53.4,52.0,30.05,ENE,71,0.0,0.0,93,0.00,,,0.00,weatherlink.com 1.10,2013-10-08 08:19:00,
2013-10-08 03:34:00,53.2,52.0,30.05,ENE,71,0.0,0.0,94,0.00,,,0.00,weatherlink.com 1.10,2013-10-08 08:34:00,
2013-10-08 03:49:00,52.9,51.0,30.05,ENE,70,0.0,0.0,94,0.00,,,0.00,weatherlink.com 1.10,2013-10-08 08:49:00,
2013-10-08 04:04:00,52.7,51.0,30.05,ENE,71,0.0,1.0,94,0.00,,,0.00,weatherlink.com 1.10,2013-10-08 09:04:00,
2013-10-08 04:19:00,52.6,51.0,30.05,ENE,71,0.0,1.0,94,0.00,,,0.00,weatherlink.com 1.10,2013-10-08 09:19:00,
2013-10-08 04:34:00,52.5,51.0,30.05,ENE,71,0.0,1.0,94,0.00,,,0.00,weatherlink.com 1.10,2013-10-08 09:34:00,
2013-10-08 04:49:00,52.3,51.0,30.05,ENE,71,0.0,0.0,94,0.00,,,0.00,weatherlink.com 1.10,2013-10-08 09:49:00,
2013-10-08 05:04:00,52.2,51.0,30.05,ENE,71,0.0,0.0,94,0.00,,,0.00,weatherlink.com 1.10,2013-10-08 10:04:00,
2013-10-08 05:19:00,52.0,50.0,30.05,ENE,71,0.0,0.0,94,0.00,,,0.00,weatherlink.com 1.10,2013-10-08 10:19:00,
2013-10-08 05:34:00,51.9,51.0,30.06,ENE,71,0.0,1.0,95,0.00,,,0.00,weatherlink.com 1.10,2013-10-08 10:34:00,
2013-10-08 05:49:00,51.8,51.0,30.06,ENE,70,0.0,0.0,95,0.00,,,0.00,weatherlink.com 1.10,2013-10-08 10:49:00,
2013-10-08 06:04:00,51.6,50.0,30.06,ENE,71,0.0,0.0,95,0.00,,,0.00,weatherlink.com 1.10,2013-10-08 11:04:00,
2013-10-08 06:19:00,51.4,50.0,30.06,ENE,70,0.0,0.0,95,0.00,,,0.00,weatherlink.com 1.10,2013-10-08 11:19:00,
2013-10-08 06:34:00,51.3,50.0,30.06,NNE,15,0.0,1.0,95,0.00,,,0.00,weatherlink.com 1.10,2013-10-08 11:34:00,
2013-10-08 06:49:00,51.2,50.0,30.06,NNE,15,0.0,1.0,95,0.00,,,0.00,weatherlink.com 1.10,2013-10-08 11:49:00,
2013-10-08 07:04:00,51.1,50.0,30.06,NNE,15,0.0,0.0,95,0.00,,,0.00,weatherlink.com 1.10,2013-10-08 12:04:00,
2013-10-08 07:19:00,51.1,50.0,30.06,ENE,60,1.0,2.0,95,0.00,,,0.00,weatherlink.com 1.10,2013-10-08 12:19:00,
2013-10-08 07:34:00,51.4,50.0,30.07,ENE,61,1.0,2.0,95,0.00,,,0.00,weatherlink.com 1.10,2013-10-08 12:34:00,
2013-10-08 07:49:00,52.0,50.0,30.07,NNE,28,0.0,2.0,94,0.00,,,0.00,weatherlink.com 1.10,2013-10-08 12:49:00,
2013-10-08 08:04:00,52.8,51.0,30.07,ENE,72,0.0,3.0,93,0.00,,,0.00,weatherlink.com 1.10,2013-10-08 13:04:00,
2013-10-08 08:19:00,54.5,52.0,30.07,East,80,3.0,4.0,91,0.00,,,0.00,weatherlink.com 1.10,2013-10-08 13:19:00,
2013-10-08 08:34:00,55.6,52.0,30.07,NNE,15,2.0,4.0,88,0.00,,,0.00,weatherlink.com 1.10,2013-10-08 13:34:00,
2013-10-08 08:49:00,56.2,53.0,30.07,NNW,329,1.0,4.0,88,0.00,,,0.00,weatherlink.com 1.10,2013-10-08 13:49:00,
2013-10-08 09:04:00,57.2,53.0,30.08,East,79,1.0,3.0,86,0.00,,,0.00,weatherlink.com 1.10,2013-10-08 14:04:00,
2013-10-08 09:19:00,58.7,54.0,30.08,NNW,342,2.0,2.0,83,0.00,,,0.00,weatherlink.com 1.10,2013-10-08 14:19:00,
2013-10-08 09:35:00,60.4,54.0,30.09,NNE,27,0.0,4.0,79,0.00,,,0.00,weatherlink.com 1.10,2013-10-08 14:35:00,
2013-10-08 09:50:00,61.9,54.0,30.09,NE,55,2.0,4.0,75,0.00,,,0.00,weatherlink.com 1.10,2013-10-08 14:50:00,
2013-10-08 10:05:00,63.0,55.0,30.09,NNE,22,3.0,4.0,74,0.00,,,0.00,weatherlink.com 1.10,2013-10-08 15:05:00,
2013-10-08 10:20:00,63.9,54.0,30.08,NNE,25,0.0,4.0,71,0.00,,,0.00,weatherlink.com 1.10,2013-10-08 15:20:00,
2013-10-08 10:35:00,64.7,54.0,30.08,East,84,3.0,5.0,69,0.00,,,0.00,weatherlink.com 1.10,2013-10-08 15:35:00,
2013-10-08 10:50:00,65.2,55.0,30.08,East,84,1.0,5.0,69,0.00,,,0.00,weatherlink.com 1.10,2013-10-08 15:50:00,
2013-10-08 11:05:00,66.2,54.0,30.08,NE,50,1.0,5.0,65,0.00,,,0.00,weatherlink.com 1.10,2013-10-08 16:05:00,
2013-10-08 11:20:00,66.2,54.0,30.08,NE,56,0.0,4.0,66,0.00,,,0.00,weatherlink.com 1.10,2013-10-08 16:20:00,
2013-10-08 11:35:00,66.9,55.0,30.08,ENE,61,1.0,3.0,66,0.00,,,0.00,weatherlink.com 1.10,2013-10-08 16:35:00,
2013-10-08 11:50:00,67.5,54.0,30.08,WSW,239,0.0,6.0,62,0.00,,,0.00,weatherlink.com 1.10,2013-10-08 16:50:00,
2013-10-08 12:05:00,68.0,54.0,30.07,West,274,1.0,7.0,62,0.00,,,0.00,weatherlink.com 1.10,2013-10-08 17:05:00,
2013-10-08 12:20:00,68.4,54.0,30.07,North,359,1.0,6.0,61,0.00,,,0.00,weatherlink.com 1.10,2013-10-08 17:20:00,
2013-10-08 12:35:00,69.8,53.0,30.06,NE,55,2.0,3.0,56,0.00,,,0.00,weatherlink.com 1.10,2013-10-08 17:35:00,
2013-10-08 12:50:00,69.9,52.0,30.06,NNE,33,3.0,7.0,54,0.00,,,0.00,weatherlink.com 1.10,2013-10-08 17:50:00,
2013-10-08 13:05:00,70.3,54.0,30.05,NE,41,2.0,6.0,56,0.00,,,0.00,weatherlink.com 1.10,2013-10-08 18:05:00,
2013-10-08 13:20:00,70.9,54.0,30.04,ENE,60,4.0,8.0,55,0.00,,,0.00,weatherlink.com 1.10,2013-10-08 18:20:00,
2013-10-08 13:35:00,72.5,53.0,30.04,ENE,70,5.0,6.0,50,0.00,,,0.00,weatherlink.com 1.10,2013-10-08 18:35:00,
2013-10-08 13:49:00,72.6,55.0,30.03,WNW,297,0.0,5.0,55,0.00,,,0.00,weatherlink.com 1.10,2013-10-08 18:49:00,
2013-10-08 14:04:00,73.5,55.0,30.02,WSW,252,1.0,5.0,53,0.00,,,0.00,weatherlink.com 1.10,2013-10-08 19:04:00,
2013-10-08 14:19:00,74.2,54.0,30.02,WNW,292,2.0,4.0,50,0.00,,,0.00,weatherlink.com 1.10,2013-10-08 19:19:00,
2013-10-08 14:34:00,74.4,55.0,30.02,ENE,63,5.0,5.0,51,0.00,,,0.00,weatherlink.com 1.10,2013-10-08 19:34:00,
2013-10-08 14:49:00,74.5,56.0,30.01,NW,325,2.0,5.0,52,0.00,,,0.00,weatherlink.com 1.10,2013-10-08 19:49:00,
2013-10-08 15:04:00,74.6,54.0,30.01,NNW,333,2.0,7.0,48,0.00,,,0.00,weatherlink.com 1.10,2013-10-08 20:04:00,
2013-10-08 15:20:00,75.0,53.0,30.01,NNE,13,2.0,5.0,47,0.00,,,0.00,weatherlink.com 1.10,2013-10-08 20:20:00,
2013-10-08 15:35:00,75.6,54.0,30.01,East,86,2.0,4.0,47,0.00,,,0.00,weatherlink.com 1.10,2013-10-08 20:35:00,
2013-10-08 15:50:00,75.1,55.0,30.01,North,6,0.0,6.0,49,0.00,,,0.00,weatherlink.com 1.10,2013-10-08 20:50:00,
2013-10-08 16:05:00,75.6,53.0,30.01,North,352,1.0,5.0,46,0.00,,,0.00,weatherlink.com 1.10,2013-10-08 21:05:00,
2013-10-08 16:20:00,75.0,53.0,30.01,ENE,60,1.0,3.0,47,0.00,,,0.00,weatherlink.com 1.10,2013-10-08 21:20:00,
2013-10-08 16:35:00,75.3,54.0,30.02,NNE,15,2.0,5.0,48,0.00,,,0.00,weatherlink.com 1.10,2013-10-08 21:35:00,
2013-10-08 16:50:00,75.0,53.0,30.01,ENE,73,3.0,4.0,47,0.00,,,0.00,weatherlink.com 1.10,2013-10-08 21:50:00,
2013-10-08 17:05:00,75.2,54.0,30.01,NNE,18,1.0,3.0,48,0.00,,,0.00,weatherlink.com 1.10,2013-10-08 22:05:00,
2013-10-08 17:20:00,74.0,55.0,30.02,NE,37,1.0,4.0,52,0.00,,,0.00,weatherlink.com 1.10,2013-10-08 22:20:00,
2013-10-08 17:36:00,73.6,55.0,30.01,NE,37,3.0,3.0,52,0.00,,,0.00,weatherlink.com 1.10,2013-10-08 22:36:00,
2013-10-08 17:50:00,73.9,56.0,30.01,NNE,15,1.0,1.0,53,0.00,,,0.00,weatherlink.com 1.10,2013-10-08 22:50:00,
2013-10-08 18:05:00,72.1,56.0,30.02,ENE,58,0.0,1.0,58,0.00,,,0.00,weatherlink.com 1.10,2013-10-08 23:05:00,
2013-10-08 18:20:00,70.5,57.0,30.02,ENE,58,0.0,0.0,63,0.00,,,0.00,weatherlink.com 1.10,2013-10-08 23:20:00,
2013-10-08 18:35:00,68.6,58.0,30.02,ENE,58,0.0,0.0,68,0.00,,,0.00,weatherlink.com 1.10,2013-10-08 23:35:00,
2013-10-08 18:50:00,66.8,57.0,30.02,ENE,58,0.0,0.0,72,0.00,,,0.00,weatherlink.com 1.10,2013-10-08 23:50:00,
2013-10-08 19:05:00,65.5,57.0,30.02,ENE,58,0.0,0.0,75,0.00,,,0.00,weatherlink.com 1.10,2013-10-09 00:05:00,
2013-10-08 19:35:00,63.3,57.0,30.03,ENE,58,0.0,1.0,80,0.00,,,0.00,weatherlink.com 1.10,2013-10-09 00:35:00,
2013-10-08 19:50:00,62.6,57.0,30.04,NE,56,0.0,0.0,81,0.00,,,0.00,weatherlink.com 1.10,2013-10-09 00:50:00,
2013-10-08 20:05:00,61.7,57.0,30.04,ENE,57,0.0,0.0,83,0.00,,,0.00,weatherlink.com 1.10,2013-10-09 01:05:00,
2013-10-08 20:20:00,61.1,56.0,30.05,NE,56,0.0,0.0,84,0.00,,,0.00,weatherlink.com 1.10,2013-10-09 01:20:00,
2013-10-08 20:35:00,60.6,56.0,30.05,ENE,57,0.0,0.0,86,0.00,,,0.00,weatherlink.com 1.10,2013-10-09 01:35:00,
2013-10-08 20:50:00,60.2,56.0,30.05,ENE,57,0.0,0.0,86,0.00,,,0.00,weatherlink.com 1.10,2013-10-09 01:50:00,
2013-10-08 21:05:00,59.9,56.0,30.06,NE,56,0.0,0.0,86,0.00,,,0.00,weatherlink.com 1.10,2013-10-09 02:05:00,
2013-10-08 21:20:00,59.4,56.0,30.06,ENE,57,0.0,0.0,87,0.00,,,0.00,weatherlink.com 1.10,2013-10-09 02:20:00,
2013-10-08 21:35:00,59.2,55.0,30.06,NE,56,0.0,0.0,87,0.00,,,0.00,weatherlink.com 1.10,2013-10-09 02:35:00,
2013-10-08 21:50:00,58.7,55.0,30.06,NE,56,0.0,0.0,88,0.00,,,0.00,weatherlink.com 1.10,2013-10-09 02:50:00,
2013-10-08 22:05:00,58.2,55.0,30.06,NE,56,0.0,0.0,89,0.00,,,0.00,weatherlink.com 1.10,2013-10-09 03:05:00,
2013-10-08 22:20:00,58.0,55.0,30.06,ENE,57,0.0,0.0,89,0.00,,,0.00,weatherlink.com 1.10,2013-10-09 03:20:00,
2013-10-08 22:35:00,57.7,55.0,30.06,NE,56,0.0,0.0,89,0.00,,,0.00,weatherlink.com 1.10,2013-10-09 03:35:00,
2013-10-08 22:50:00,57.4,54.0,30.06,NE,56,0.0,0.0,89,0.00,,,0.00,weatherlink.com 1.10,2013-10-09 03:50:00,
2013-10-08 23:05:00,57.1,54.0,30.06,ENE,57,0.0,0.0,90,0.00,,,0.00,weatherlink.com 1.10,2013-10-09 04:05:00,
2013-10-08 23:20:00,56.7,54.0,30.06,ENE,57,0.0,0.0,91,0.00,,,0.00,weatherlink.com 1.10,2013-10-09 04:20:00,
2013-10-08 23:35:00,56.7,54.0,30.05,NE,56,0.0,0.0,91,0.00,,,0.00,weatherlink.com 1.10,2013-10-09 04:35:00,
2013-10-08 23:50:00,56.4,54.0,30.05,NE,56,0.0,0.0,91,0.00,,,0.00,weatherlink.com 1.10,2013-10-09 04:50:00,